Weather History for Jacksonville, FL

Change the Weather History Date:

Tuesday, April 16, 2013

  Actual Average Record
Temperature  
Mean Temperature 72 °F 67 °F  
Max Temperature 81 °F 79 °F 90 °F (1972)
Min Temperature 62 °F 55 °F 40 °F (2008)
Degree Days  
Heating Degree Days 0 2  
Month to date heating degree days 19 40  
Since 1 July heating degree days 1216 1329  
Cooling Degree Days 7 4  
Month to date cooling degree days 67 48  
Year to date cooling degree days 159 131  
Growing Degree Days 22 (Base 50)    
Moisture  
Dew Point 65 °F    
Average Humidity 79    
Maximum Humidity 100    
Minimum Humidity 58    
Precipitation  
Precipitation 0.00 in 0.09 in 0.91 in (1931)
Month to date precipitation 1.67 1.56  
Year to date precipitation 10.46 12.00  
Snow  
Snow 0.00 in 0.00 in 0.00 in (2002)
Month to date snowfall 0.0 0.0  
Since 1 July snowfall 0.0 T  
Snow Depth 0.00 in    
Sea Level Pressure  
Sea Level Pressure 30.17 in    
Wind  
Wind Speed 7 mph (ENE)    
Max Wind Speed 17 mph    
Max Gust Speed 22 mph    
Visibility 7 miles    
Events      
T = Trace of Precipitation, MM = Missing Value Source: NWS Daily Summary

Daily Weather History Graph

Daily Weather History Graph

Search for Another Location

Airport:

Trip Planner

Search our weather history database for the weather conditions in past years. The results will help you decide how hot, cold, wet, or windy it might be!

Date:

Astronomy

Apr. 16, 2013 Rise Set
Actual Time 6:58 AM EDT 7:55 PM EDT
Civil Twilight 6:33 AM EDT 8:20 PM EDT
Nautical Twilight 6:04 AM EDT 8:49 PM EDT
Astronomical Twilight 5:34 AM EDT 9:19 PM EDT
Moon 11:25 AM EDT (4/16) 12:40 AM EDT (4/16)
Length of Visible Light 13h 46m
Length of Day
12h 57m
Waxing Crescent, 33% of the Moon is Illuminated
Apr 16
Waxing Crescent
Apr 18
First Quarter
Apr 25
Full
May 2
Last Quarter
May 9
New

Hourly Weather History & Observations

Time (EDT) Temp. Heat Index Dew Point Humidity Pressure Visibility Wind Dir Wind Speed Gust Speed Precip Events Conditions
12:47 AM 62.6 °F - 60.8 °F 94% 30.13 in 7.0 mi Calm Calm - N/A   Mostly Cloudy
12:56 AM 63.0 °F - 61.0 °F 93% 30.13 in 7.0 mi Calm Calm - N/A   Mostly Cloudy
1:56 AM 64.0 °F - 63.0 °F 96% 30.12 in 6.0 mi Calm Calm - N/A   Overcast
2:50 AM 64.4 °F - 64.4 °F 100% 30.11 in 1.0 mi Calm Calm - N/A   Overcast
2:56 AM 64.9 °F - 64.0 °F 97% 30.11 in 1.0 mi Calm Calm - N/A   Overcast
3:14 AM 64.4 °F - 64.4 °F 100% 30.11 in 1.0 mi East 6.9 mph - N/A   Mist
3:56 AM 64.9 °F - 64.9 °F 100% 30.12 in 6.0 mi East 8.1 mph - N/A   Overcast
4:56 AM 64.9 °F - 64.0 °F 97% 30.12 in 5.0 mi ENE 6.9 mph - N/A   Overcast
5:56 AM 64.9 °F - 64.0 °F 97% 30.13 in 3.0 mi East 3.5 mph - N/A   Overcast
6:56 AM 64.9 °F - 63.0 °F 93% 30.15 in 10.0 mi NE 4.6 mph - N/A   Overcast
7:56 AM 64.9 °F - 63.0 °F 93% 30.17 in 10.0 mi NE 5.8 mph - N/A   Overcast
8:17 AM 64.4 °F - 64.4 °F 100% 30.17 in 1.0 mi ENE 4.6 mph - N/A   Overcast
8:56 AM 66.0 °F - 64.9 °F 96% 30.19 in 1.0 mi ENE 3.5 mph - N/A   Mostly Cloudy
9:16 AM 69.8 °F - 64.4 °F 83% 30.19 in 2.0 mi NNE 3.5 mph - N/A   Mostly Cloudy
9:21 AM 69.8 °F - 64.4 °F 83% 30.19 in 4.0 mi Calm Calm - N/A   Mostly Cloudy
9:56 AM 72.0 °F - 66.0 °F 81% 30.19 in 6.0 mi NE 5.8 mph - N/A   Haze
10:29 AM 73.4 °F - 66.2 °F 78% 30.19 in 6.0 mi NE 4.6 mph - N/A   Haze
10:56 AM 75.9 °F - 68.0 °F 76% 30.19 in 9.0 mi East 6.9 mph - N/A   Mostly Cloudy
11:13 AM 77.0 °F - 66.2 °F 69% 30.20 in 10.0 mi ESE 9.2 mph - N/A   Mostly Cloudy
11:56 AM 79.0 °F - 66.9 °F 66% 30.20 in 10.0 mi ESE 9.2 mph - N/A   Mostly Cloudy
12:16 PM 78.8 °F - 66.2 °F 65% 30.19 in 10.0 mi East 10.4 mph - N/A   Mostly Cloudy
12:56 PM 80.1 °F 82.1 °F 66.0 °F 62% 30.20 in 10.0 mi East 11.5 mph - N/A   Mostly Cloudy
1:56 PM 80.1 °F 81.9 °F 64.9 °F 60% 30.19 in 10.0 mi East 12.7 mph - N/A   Mostly Cloudy
2:56 PM 81.0 °F 83.0 °F 66.0 °F 60% 30.18 in 10.0 mi East 13.8 mph 21.9 mph N/A   Scattered Clouds
3:56 PM 80.1 °F 81.9 °F 64.9 °F 60% 30.17 in 10.0 mi ENE 15.0 mph - N/A   Scattered Clouds
4:56 PM 79.0 °F - 64.9 °F 62% 30.17 in 10.0 mi ENE 12.7 mph - N/A   Scattered Clouds
5:56 PM 77.0 °F - 64.0 °F 64% 30.18 in 10.0 mi East 15.0 mph - N/A   Scattered Clouds
6:56 PM 75.0 °F - 64.9 °F 71% 30.18 in 10.0 mi ENE 13.8 mph - N/A   Partly Cloudy
7:56 PM 70.0 °F - 64.9 °F 84% 30.19 in 10.0 mi East 11.5 mph - N/A   Scattered Clouds
8:56 PM 68.0 °F - 64.0 °F 87% 30.19 in 10.0 mi NE 4.6 mph - N/A   Partly Cloudy
9:56 PM 66.0 °F - 64.0 °F 93% 30.20 in 10.0 mi NE 3.5 mph - N/A   Clear
10:56 PM 66.0 °F - 64.0 °F 93% 30.20 in 8.0 mi ENE 3.5 mph - N/A   Clear
11:56 PM 66.0 °F - 64.0 °F 93% 30.19 in 9.0 mi Calm Calm - N/A   Clear